Akhlamad, ایران

07:20 AM +0330 on فوریه 18, 2019 (GMT +0330)
Shahid Hashemi Nejad International | | Change Station

Elev 3245 ft 36.27 °N, 59.63 °E | Updated 20 minutes ago

ابرهاى پراكنده
ابرهاى پراكنده
36 °F
Feels Like 28 °F
N
12
باد متغير باد from جنوب غربی

امروز
High -- | Low -- °F
--% Chance of Precip.
دیروز
High -- | Low -- °F
Precip. -- در
فشار 29.89 در
ديد 6.2 مايل، ميل (در برابر كيلومتر
ابری Few 3500 ft
باد سرد 28 °F
قطره شبنم 28 °F
رطوبت 75%
بارش باران 0.00 در
برف عمیق Not available.
6:19 AM 5:17 PM
Waxing Gibbous, 97% visible
METAR OIMM 180330Z 23010KT 9999 FEW035 02/M02 Q1012 A2990
فشار 29.89 در
ديد 6.2 مايل، ميل (در برابر كيلومتر
ابری Few 3500 ft
باد سرد 28 °F
قطره شبنم 28 °F
رطوبت 75%
بارش باران 0.00 در
برف عمیق Not available.
6:19 AM 5:17 PM
Waxing Gibbous, 97% visible
METAR OIMM 180330Z 23010KT 9999 FEW035 02/M02 Q1012 A2990

Get Severe Weather Alerts

Thanks for signing up!

Be on the lookout for a verification email in your inbox.

You'll start receiving the daily forecast at 6 AM.

×

10-Day Weather Forecast

No radar image for this location.
×

Almanac

ستاره شناسی

Feb. 18, 2019 Rise Set
وقت حقیقی
تاریک و روشن اجتماعی
تاریک روشن دریایی
شفق و فلق نجومی
ماه
میزان روشنایی روز
طول روز
Tomorrow will be .
, % of the Moon is Illuminated

Today's Extremes

Country Highs Country Lows

Community

WunderPhotos

Category 6

Welcome to Category 6. This is the collective home for Weather Underground's featured writeups by Dr. Jeff Masters (right), Bob Henson (left), Chris Burt, and other regular contributors.

Nearby

تمیزی هوا

  تمیزی هوا AQ Index آلاینده
Not available.

عمق برف

Station Depth Elevation

Earthquake Activity

شهر Distance Mag. Time & Date
Minimum magnitude displayed is 2.5.

Coastal Water Temperatures

منطقه درجه حرارت

Stations

Nearby Weather Stations

Station Location دما باد سرد قطره شبنم رطوبت باد Precip. Elev ارتقا دادن Type